Flag for Lithuania Weather past 2 weeks in Kaunas, Lithuania

Now
70 °F

Passing clouds.


Feels Like: 70 °F
Forecast: 41 / 59 °F
Wind: 10 mph from North

Location: Kaunas


UV Index: 3 (Moderate)

Visibility: N/A


Pressure: 30.09 "Hg

Humidity: 25%

Dew point: 32 °F

Location of KaunasLocation

Historic Weather in Kaunas

°F

Kaunas temperature yesterday

Maximum temperature yesterday: 73 °F (at 3:20 PM)
Minimum temperature yesterday: 45 °F (at 5:50 AM)
Average temperature yesterday: 59 °F

Past Weeks' High & Low Weather Summary

 TemperatureHumidityPressure
High73 °F (Apr 20, 3:50 PM)94% (Apr 9, 2:50 AM)30.36 "Hg (Apr 9, 2:50 AM)
Low25 °F (Apr 17, 4:50 AM)19% (Apr 21, 3:20 PM)29.56 "Hg (Apr 14, 1:50 PM)
Average49 °F60%29.98 "Hg
* Reported Apr 8 4:20 PM — Apr 23 4:50 PM, Kaunas, Weather by CustomWeather, © 2014

Note: Actual official high and low records may vary slightly from our data, if they occured in-between our weather recording intervals... More about our weather records

Advertising

Historic Weather Conditions — Data for Previous 24 hours

 ConditionsComfort  
Time TempWeatherWind HumidityBarometerVisibility
4:50 PM
Apr 23
70 °FPassing clouds.10 mph25%30.09 "HgN/A
4:20 PM70 °FPassing clouds.10 mph25%30.09 "HgN/A
3:50 PM70 °FPassing clouds.12 mph23%30.09 "HgN/A
3:20 PM70 °FPassing clouds.12 mph27%30.09 "HgN/A
2:50 PM70 °FPassing clouds.12 mph25%30.12 "HgN/A
2:20 PM70 °FPassing clouds.12 mph27%30.09 "HgN/A
1:50 PM70 °FPassing clouds.9 mph29%30.09 "HgN/A
1:20 PM70 °FPassing clouds.8 mph27%30.09 "HgN/A
12:50 PM70 °FSunny.6 mph31%30.09 "Hg10 mi
12:20 PM68 °FPassing clouds.6 mph35%30.12 "HgN/A
11:50 AM66 °FPassing clouds.3 mph37%30.09 "HgN/A
11:20 AM64 °FPassing clouds.5 mph37%30.09 "HgN/A
10:50 AM61 °FSunny.3 mph48%30.09 "Hg10 mi
10:20 AM59 °FSunny.2 mph51%30.09 "Hg10 mi
9:50 AM55 °FPassing clouds.5 mph55%30.09 "HgN/A
9:20 AM54 °FPassing clouds.5 mph58%30.09 "HgN/A
8:50 AM52 °FPassing clouds.6 mph62%30.07 "HgN/A
8:20 AM50 °FSunny.6 mph67%30.07 "Hg10 mi
7:50 AM48 °FSunny.6 mph66%30.07 "Hg10 mi
7:20 AM48 °FPassing clouds.5 mph66%30.07 "HgN/A
6:50 AM46 °FPassing clouds.5 mph71%30.07 "HgN/A
6:20 AM46 °FClear.3 mph66%30.04 "Hg10 mi
5:50 AM46 °FClear.2 mph66%30.04 "Hg10 mi
5:20 AM48 °FClear.2 mph62%30.04 "Hg10 mi
4:50 AM48 °FClear.No wind62%30.04 "Hg10 mi
4:20 AM50 °FClear.1 mph58%30.04 "Hg10 mi
3:50 AM52 °FPassing clouds.3 mph54%30.01 "HgN/A
3:20 AM52 °FCool.5 mph54%30.01 "HgN/A
2:50 AM54 °FPassing clouds.5 mph51%30.01 "HgN/A
2:20 AM54 °FCool.7 mph51%30.01 "HgN/A
1:50 AM55 °FRefreshingly cool.7 mph51%30.01 "HgN/A
1:20 AM55 °FRefreshingly cool.5 mph59%30.01 "HgN/A
12:50 AM54 °FCool.1 mph67%30.01 "HgN/A
12:20 AM54 °FCool.1 mph67%30.01 "HgN/A
11:50 PM
Apr 22
55 °FClear.No wind63%29.98 "Hg10 mi
11:20 PM57 °FClear.1 mph59%29.98 "Hg10 mi
10:50 PM57 °FClear.No wind59%29.98 "Hg10 mi
10:20 PM59 °FClear.No wind59%29.98 "Hg10 mi
9:50 PM61 °FClear.1 mph52%29.98 "Hg10 mi
9:20 PM63 °FPartly sunny.3 mph45%29.98 "HgN/A
8:50 PM64 °FPartly sunny.6 mph46%29.95 "HgN/A
8:20 PM68 °FScattered clouds.3 mph35%29.95 "HgN/A
7:50 PM70 °FScattered clouds.3 mph33%29.95 "HgN/A
7:20 PM70 °FScattered clouds.5 mph35%29.92 "HgN/A
6:50 PM72 °FScattered clouds.6 mph33%29.92 "HgN/A
6:20 PM72 °FScattered clouds.3 mph33%29.92 "HgN/A
Weather by CustomWeather, © 2014

See weather overview